TimeMST,TemperatureF,Dew PointF,Humidity,Sea Level PressureIn,VisibilityMPH,Wind Direction,Wind SpeedMPH,Gust SpeedMPH,PrecipitationIn,Events,Conditions,WindDirDegrees,DateUTC
12:53 AM,25.0,19.9,81,30.19,10.0,WNW,9.2,-,N/A,,Overcast,290,2013-01-02 07:53:00
1:53 AM,26.1,19.9,78,30.20,10.0,NW,16.1,23.0,N/A,,Overcast,310,2013-01-02 08:53:00
2:53 AM,26.1,19.9,78,30.21,6.0,NW,15.0,21.9,0.00,Snow,Light Snow,310,2013-01-02 09:53:00
3:53 AM,25.0,19.9,81,30.22,10.0,WNW,10.4,-,0.00,,Overcast,290,2013-01-02 10:53:00
4:03 AM,24.8,19.4,80,30.12,10.0,West,10.4,-,N/A,,Overcast,280,2013-01-02 11:03:00
4:53 AM,24.1,19.0,81,30.25,10.0,WNW,12.7,-,N/A,,Overcast,300,2013-01-02 11:53:00
5:53 AM,25.0,18.0,75,30.25,10.0,WNW,12.7,-,0.00,,Overcast,300,2013-01-02 12:53:00
6:53 AM,25.0,17.1,72,30.27,10.0,NW,12.7,-,N/A,,Overcast,310,2013-01-02 13:53:00
7:53 AM,25.0,17.1,72,30.26,10.0,WNW,11.5,-,N/A,,Overcast,300,2013-01-02 14:53:00
8:53 AM,26.1,17.1,69,30.26,10.0,WNW,9.2,-,N/A,,Overcast,290,2013-01-02 15:53:00
9:53 AM,27.0,17.1,66,30.27,10.0,WNW,11.5,-,N/A,,Overcast,290,2013-01-02 16:53:00
10:53 AM,28.9,15.1,56,30.27,10.0,NW,13.8,21.9,N/A,,Overcast,310,2013-01-02 17:53:00
11:53 AM,28.9,14.0,54,30.24,10.0,NW,17.3,28.8,N/A,,Overcast,310,2013-01-02 18:53:00
12:53 PM,28.9,12.9,51,30.22,10.0,NW,21.9,32.2,N/A,,Clear,310,2013-01-02 19:53:00
1:53 PM,30.0,12.0,47,30.21,10.0,NW,17.3,27.6,N/A,,Clear,320,2013-01-02 20:53:00
2:53 PM,30.0,10.9,45,30.22,10.0,NW,17.3,24.2,N/A,,Partly Cloudy,310,2013-01-02 21:53:00
3:53 PM,28.9,12.0,49,30.24,10.0,NNW,17.3,26.5,N/A,,Scattered Clouds,330,2013-01-02 22:53:00
4:53 PM,28.0,12.9,53,30.26,10.0,NW,17.3,24.2,N/A,,Overcast,320,2013-01-02 23:53:00
5:53 PM,26.1,12.9,58,30.30,10.0,NW,19.6,26.5,N/A,,Overcast,320,2013-01-03 00:53:00
6:53 PM,21.9,14.0,72,30.34,10.0,North,12.7,24.2,N/A,,Overcast,360,2013-01-03 01:53:00
7:53 PM,21.0,14.0,74,30.37,10.0,NW,10.4,-,N/A,,Overcast,320,2013-01-03 02:53:00
8:53 PM,19.9,14.0,78,30.38,10.0,NNW,8.1,-,N/A,,Overcast,340,2013-01-03 03:53:00
9:53 PM,19.9,10.9,68,30.39,10.0,NW,11.5,-,N/A,,Overcast,310,2013-01-03 04:53:00
10:53 PM,19.0,10.9,71,30.42,10.0,NW,11.5,-,N/A,,Overcast,320,2013-01-03 05:53:00
11:41 PM,19.4,10.4,68,30.29,10.0,NNW,10.4,-,N/A,,Overcast,330,2013-01-03 06:41:00
11:51 PM,19.4,10.4,68,30.29,10.0,NW,10.4,-,N/A,,Overcast,320,2013-01-03 06:51:00
11:53 PM,19.0,10.9,71,30.42,10.0,NW,9.2,-,N/A,,Overcast,320,2013-01-03 06:53:00